$Date,$Time,DM0201B,DM0203B,DM0205B,DM0207B,DM0209B
06/10/99,00:00:01,0,0,0,0,0
06/10/99,00:05:01,4,259,-24,0,976
06/10/99,00:10:01,5,2,-24,0,976
06/10/99,00:15:01,5,2,-24,0,976
06/10/99,00:20:01,5,2,-24,0,976
06/10/99,00:25:01,5,351,-24,0,976
06/10/99,00:30:01,5,327,-24,0,976
06/10/99,00:35:01,5,327,-24,0,976
06/10/99,00:40:01,5,327,-24,0,976
06/10/99,00:45:01,5,327,-24,0,976
06/10/99,00:50:01,5,268,-24,0,976
06/10/99,00:55:01,5,268,-24,0,976
06/10/99,01:00:01,5,268,-24,0,976
06/10/99,01:05:01,5,218,-24,0,976
06/10/99,01:10:01,16,190,-24,0,976
06/10/99,01:15:01,16,190,-24,0,976
06/10/99,01:20:01,26,210,-24,0,976
06/10/99,01:25:01,15,210,-24,0,976
06/10/99,01:30:01,20,199,-24,0,976
06/10/99,01:35:01,0,199,-24,0,976
06/10/99,01:40:01,0,199,-24,0,976
06/10/99,01:45:01,34,211,-24,0,976
06/10/99,01:50:01,57,211,-24,0,976
06/10/99,01:55:01,58,198,-24,0,976
06/10/99,02:00:01,29,195,-24,0,976
06/10/99,02:05:01,39,223,-24,0,976
06/10/99,02:10:01,39,208,-24,0,976
06/10/99,02:15:01,43,231,-24,0,976
06/10/99,02:20:01,55,224,-24,0,976
06/10/99,02:25:01,29,224,-24,0,976
06/10/99,02:30:01,5,202,-24,0,976
06/10/99,02:35:01,5,203,-24,0,976
06/10/99,02:40:01,21,238,-24,0,976
06/10/99,02:45:01,4,238,-24,0,976
06/10/99,02:50:01,4,238,-24,0,976
06/10/99,02:55:01,30,224,-24,0,976
06/10/99,03:00:01,18,257,-24,0,976
06/10/99,03:05:01,15,255,-24,0,976
06/10/99,03:10:01,12,274,-24,0,976
06/10/99,03:15:01,23,209,-24,0,976
06/10/99,03:20:01,32,197,-24,0,976
06/10/99,03:25:01,38,207,-24,0,976
06/10/99,03:30:01,54,204,-24,0,976
06/10/99,03:35:01,43,181,-24,0,976
06/10/99,03:40:01,8,195,-24,0,976
06/10/99,03:45:01,19,183,-24,0,976
06/10/99,03:50:01,63,173,-24,0,976
06/10/99,03:55:01,74,176,-24,0,976
06/10/99,04:00:01,62,186,-24,0,976
06/10/99,04:05:01,54,200,-24,0,976
06/10/99,04:10:01,98,190,-24,0,976
06/10/99,04:15:01,107,201,-24,0,976
06/10/99,04:20:01,106,198,-24,0,976
06/10/99,04:25:01,111,185,-24,0,976
06/10/99,04:30:01,129,185,-24,0,976
06/10/99,04:35:01,122,185,-24,0,976
06/10/99,04:40:01,122,185,-24,0,976
06/10/99,04:45:01,123,185,-24,0,976
06/10/99,04:50:01,132,185,-24,0,976
06/10/99,04:55:01,95,195,-24,0,976
06/10/99,05:00:01,80,206,-24,0,976
06/10/99,05:05:01,72,187,-24,0,976
06/10/99,05:10:01,95,186,-24,0,976
06/10/99,05:15:01,75,186,-24,0,976
06/10/99,05:20:01,115,189,-24,0,976
06/10/99,05:25:01,96,177,-24,0,976
06/10/99,05:30:01,123,187,-24,0,976
06/10/99,05:35:01,115,187,-24,0,976
06/10/99,05:40:01,116,187,-24,0,976
06/10/99,05:45:01,116,187,-24,0,976
06/10/99,05:50:01,125,187,-24,0,976
06/10/99,05:55:01,115,187,-24,0,976
06/10/99,06:00:01,115,187,-24,0,978
06/10/99,06:05:01,125,187,-24,0,978
06/10/99,06:10:01,113,187,-24,0,978
06/10/99,06:15:01,113,187,-24,0,978
06/10/99,06:20:01,113,177,-24,0,978
06/10/99,06:25:01,113,177,-24,0,978
06/10/99,06:30:01,117,177,-24,0,978
06/10/99,06:35:01,115,177,-24,0,978
06/10/99,06:40:01,117,179,-24,0,978
06/10/99,06:45:01,126,185,-24,0,978
06/10/99,06:50:01,123,185,-24,0,978
06/10/99,06:55:01,119,185,-24,0,978
06/10/99,07:00:01,134,175,-24,0,978
06/10/99,07:05:01,96,186,-24,0,978
06/10/99,07:10:01,112,175,-24,0,978
06/10/99,07:15:01,127,175,-24,0,978
06/10/99,07:20:01,123,175,-24,0,978
06/10/99,07:25:01,103,163,-24,0,978
06/10/99,07:30:01,91,173,-24,0,978
06/10/99,07:35:01,82,185,-24,0,978
06/10/99,07:40:01,67,183,-24,0,978
06/10/99,07:45:01,79,183,-24,0,978
06/10/99,07:50:01,80,183,-24,0,978
06/10/99,07:55:01,80,193,-24,0,978
06/10/99,08:00:01,70,193,-24,0,978
06/10/99,08:05:01,65,193,-24,0,978
06/10/99,08:10:01,65,182,-24,0,978
06/10/99,08:15:01,65,192,-24,0,978
06/10/99,08:20:01,52,196,-24,0,978
06/10/99,08:25:01,6,196,-24,0,978
06/10/99,08:30:01,27,186,-24,0,978
06/10/99,08:35:01,20,186,-24,0,978
06/10/99,08:40:01,11,182,-24,0,978
06/10/99,08:45:01,34,182,-24,0,978
06/10/99,08:50:01,11,182,-24,0,978
06/10/99,08:55:01,50,182,-24,0,978
06/10/99,09:00:01,48,182,-24,0,978
06/10/99,09:05:01,38,182,-24,0,978
06/10/99,09:10:01,38,182,-24,0,978
06/10/99,09:15:01,22,182,-24,0,978
06/10/99,09:20:01,43,182,-24,0,978
06/10/99,09:25:01,58,192,-24,0,978
06/10/99,09:30:01,48,181,-24,0,978
06/10/99,09:35:01,46,148,-24,0,978
06/10/99,09:40:01,23,159,-24,0,978
06/10/99,09:45:01,59,170,-24,0,978
06/10/99,09:50:01,23,170,-24,0,978
06/10/99,09:55:01,0,73,-24,0,978
06/10/99,10:00:01,0,118,-24,0,978
06/10/99,10:05:01,1,135,-24,0,978
06/10/99,10:10:01,1,135,-24,0,978
06/10/99,10:15:01,11,135,-24,0,978
06/10/99,10:20:01,11,135,-24,0,978
06/10/99,10:25:01,0,135,-24,0,978
06/10/99,10:30:01,0,135,-24,0,978
06/10/99,10:35:01,0,135,-24,0,978
06/10/99,10:40:01,0,135,-24,0,978
06/10/99,10:45:01,0,135,-24,0,978
06/10/99,10:50:01,0,24,-24,0,978
06/10/99,10:55:01,0,24,-24,0,978
06/10/99,11:00:01,0,14,-24,0,978
06/10/99,11:05:01,37,14,-24,0,978
06/10/99,11:10:01,0,14,-24,0,978
06/10/99,11:15:01,42,14,-24,0,978
06/10/99,11:20:01,42,14,-24,0,978
06/10/99,11:25:01,41,14,-24,0,978
06/10/99,11:30:01,6,24,-24,0,978
06/10/99,11:35:01,3,24,-24,0,978
06/10/99,11:40:01,0,24,-24,0,978
06/10/99,11:45:01,0,3,-24,0,978
06/10/99,11:50:01,34,3,-24,0,978
06/10/99,11:55:01,31,3,-24,0,978
06/10/99,12:00:01,45,3,-24,0,978
06/10/99,12:05:01,45,3,-24,0,978
06/10/99,12:10:01,45,3,-24,0,978
06/10/99,12:15:01,42,3,-24,0,978
06/10/99,12:20:01,36,3,-24,0,978
06/10/99,12:25:01,36,3,-24,0,978
06/10/99,12:30:01,36,3,-24,0,978
06/10/99,12:35:01,57,3,-26,0,978
06/10/99,12:40:01,57,3,-26,0,978
06/10/99,12:45:01,53,357,-26,0,978
06/10/99,12:50:01,53,1,-24,0,978
06/10/99,12:55:01,52,1,-24,0,978
06/10/99,13:00:01,42,360,-24,0,978
06/10/99,13:05:01,67,360,-24,0,978
06/10/99,13:10:01,58,350,-26,0,978
06/10/99,13:15:01,69,350,-26,0,978
06/10/99,13:20:01,59,350,-26,0,978
06/10/99,13:25:01,69,1,-26,0,978
06/10/99,13:30:01,79,360,-26,0,978
06/10/99,13:35:01,69,360,-26,0,978
06/10/99,13:40:01,65,360,-26,0,978
06/10/99,13:45:01,65,360,-26,0,978
06/10/99,13:50:01,65,360,-26,0,978
06/10/99,13:55:01,65,360,-26,0,978
06/10/99,14:00:01,75,360,-24,0,978
06/10/99,14:05:01,64,360,-24,0,978
06/10/99,14:10:01,64,360,-24,0,978
06/10/99,14:15:01,39,349,-24,0,978
06/10/99,14:20:01,63,349,-26,0,978
06/10/99,14:25:01,76,1,-26,0,978
06/10/99,14:30:01,86,11,-26,0,978
06/10/99,14:35:01,86,21,-26,0,978
06/10/99,14:40:01,64,11,-26,0,978
06/10/99,14:45:01,43,11,-26,0,978
06/10/99,14:50:01,38,16,-26,0,978
06/10/99,14:55:01,35,8,-26,0,978
06/10/99,15:00:01,83,12,-26,0,978
06/10/99,15:05:01,77,22,-26,0,978
06/10/99,15:10:01,74,6,-26,0,978
06/10/99,15:15:01,64,17,-26,0,978
06/10/99,15:20:01,63,20,-26,0,978
06/10/99,15:25:01,64,20,-26,0,978
06/10/99,15:30:01,67,20,-26,0,978
06/10/99,15:35:01,61,18,-26,0,978
06/10/99,15:40:01,48,6,-26,0,978
06/10/99,15:45:01,38,6,-26,0,978
06/10/99,15:50:01,38,6,-26,0,978
06/10/99,15:55:01,28,6,-26,0,978
06/10/99,16:00:01,28,6,-26,0,978
06/10/99,16:05:01,51,7,-26,0,978
06/10/99,16:10:01,74,11,-26,0,978
06/10/99,16:15:01,73,12,-26,0,978
06/10/99,16:20:01,62,12,-26,0,978
06/10/99,16:25:01,91,12,-26,0,978
06/10/99,16:30:01,80,6,-26,0,978
06/10/99,16:35:01,69,11,-24,0,978
06/10/99,16:40:01,57,1,-24,0,978
06/10/99,16:45:01,57,3,-24,0,978
06/10/99,16:50:01,59,3,-24,0,978
06/10/99,16:55:01,42,3,-24,0,978
06/10/99,17:00:01,48,3,-24,0,978
06/10/99,17:05:01,65,4,-24,0,978
06/10/99,17:10:01,71,2,-24,0,978
06/10/99,17:15:01,62,357,-24,0,978
06/10/99,17:20:01,45,1,-24,0,978
06/10/99,17:25:01,50,356,-24,0,978
06/10/99,17:30:01,44,348,-24,0,978
06/10/99,17:35:01,45,336,-24,0,978
06/10/99,17:40:01,32,346,-24,0,978
06/10/99,17:45:01,22,346,-24,0,978
06/10/99,17:50:01,22,346,-24,0,978
06/10/99,17:55:01,11,346,-24,0,978
06/10/99,18:00:01,11,346,-24,0,978
06/10/99,18:05:01,11,346,-24,0,978
06/10/99,18:10:01,13,327,-24,0,978
06/10/99,18:15:01,13,327,-24,0,978
06/10/99,18:20:01,28,314,-24,0,978
06/10/99,18:25:01,11,255,-24,0,978
06/10/99,18:30:01,1,255,-24,0,978
06/10/99,18:35:01,1,255,-24,0,978
06/10/99,18:40:01,1,255,-24,0,978
06/10/99,18:45:01,1,255,-24,0,978
06/10/99,18:50:01,11,255,-24,0,978
06/10/99,18:55:01,11,255,-24,0,978
06/10/99,19:00:01,1,255,-24,0,978
06/10/99,19:05:01,1,255,-24,0,978
06/10/99,19:10:01,1,255,-24,0,978
06/10/99,19:15:01,1,255,-24,0,978
06/10/99,19:20:01,1,255,-24,0,978
06/10/99,19:25:01,1,255,-24,0,978
06/10/99,19:30:01,1,255,-24,0,980
06/10/99,19:35:01,11,198,-24,0,980
06/10/99,19:40:01,11,187,-24,0,980
06/10/99,19:45:01,11,187,-24,0,980
06/10/99,19:50:01,11,187,-24,0,980
06/10/99,19:55:01,21,187,-24,0,980
06/10/99,20:00:01,19,187,-24,0,980
06/10/99,20:05:01,23,177,-24,0,980
06/10/99,20:10:01,1,177,-24,0,980
06/10/99,20:15:01,1,177,-24,0,980
06/10/99,20:20:01,9,177,-24,0,980
06/10/99,20:25:01,9,177,-24,0,980
06/10/99,20:30:01,9,177,-24,0,980
06/10/99,20:35:01,9,177,-24,0,980
06/10/99,20:40:01,9,177,-24,0,980
06/10/99,20:45:01,9,177,-24,0,980
06/10/99,20:50:01,9,177,-24,0,980
06/10/99,20:55:01,9,237,-24,0,980
06/10/99,21:00:01,9,237,-24,0,980
06/10/99,21:05:01,9,237,-24,0,980
06/10/99,21:10:01,9,227,-24,0,980
06/10/99,21:15:01,9,232,-24,0,980
06/10/99,21:20:01,9,232,-24,0,980
06/10/99,21:25:01,9,232,-24,0,980
06/10/99,21:30:01,9,232,-24,0,980
06/10/99,21:35:01,9,232,-24,0,980
06/10/99,21:40:01,9,243,-24,0,980
06/10/99,21:45:01,9,260,-24,0,980
06/10/99,21:50:01,9,260,-24,0,980
06/10/99,21:55:01,9,260,-24,0,980
06/10/99,22:00:01,9,260,-24,0,980
06/10/99,22:05:01,9,260,-24,0,980
06/10/99,22:10:01,9,260,-24,0,980
06/10/99,22:15:01,9,260,-24,0,980
06/10/99,22:20:01,9,249,-24,0,980
06/10/99,22:25:01,9,249,-24,0,980
06/10/99,22:30:01,9,249,-24,0,980
06/10/99,22:35:01,9,249,-24,0,980
06/10/99,22:40:01,9,221,-24,0,980
06/10/99,22:45:01,9,221,-24,0,980
06/10/99,22:50:01,8,172,-24,0,980
06/10/99,22:55:01,10,172,-24,0,980
06/10/99,23:00:01,0,172,-24,0,980
06/10/99,23:05:01,0,159,-24,0,980
06/10/99,23:10:01,0,159,-24,0,980
06/10/99,23:15:01,0,159,-24,0,980
06/10/99,23:20:01,0,159,-24,0,980
06/10/99,23:25:01,0,159,-24,0,980
06/10/99,23:30:01,0,159,-24,0,980
06/10/99,23:35:01,0,143,-24,0,980
06/10/99,23:40:01,0,143,-24,0,980
06/10/99,23:45:01,0,143,-24,0,980
06/10/99,23:50:01,0,129,-24,0,980
06/10/99,23:55:01,12,71,-24,0,980
06/11/99,00:00:01,1,71,-24,0,980
